Temp
59 58 58 60 50 44 39 46 47 49 49 50 53 54 53 49 52 48 54 58 61 62 65 67 71 71 71 72 72 72 72 72 72 72 73 72 72 72 72 72 72 73 74 75 76 76 75 74 74
56 64 59 51 43 37 39 45 48 51 52 52 51 51 52 48 51 50 53 58 61 63 64 65 69 71 71 71 71 71 71 71 72 72 72 72 72 72 72 72 72 72 73 73 74 74 73 72 72
58 62 54 47 38 37 40 46 47 48 51 50 48 50 48 49 50 52 54 58 59 59 62 65 69 70 70 70 70 70 70 70 70 71 70 70 70 70 69 70 70 70 71 71 72 71 71 71 71
56 56 51 43 38 44 45 46 47 49 48 51 47 46 47 53 53 54 56 57 56 57 60 66 69 69 69 69 69 69 69 69 68 68 68 68 68 67 68 68 68 69 70 70 70 70 70 70 70
53 49 41 37 40 45 46 49 51 50 48 47 48 44 44 52 54 55 55 57 54 54 57 61 68 68 68 68 68 68 68 67 67 66 66 66 66 65 65 66 67 67 67 68 68 68 68 68 68
48 47 38 35 37 44 47 49 49 48 48 47 47 45 46 49 52 52 54 53 54 54 55 57 62 65 66 66 66 66 66 65 65 64 64 64 63 63 63 64 64 65 65 65 66 66 66 66 65
46 42 37 35 38 42 47 50 47 47 48 47 50 44 45 46 51 51 52 52 52 53 52 52 53 57 62 63 63 63 63 63 62 62 61 60 60 60 60 60 62 63 63 63 63 63 63 63 63
46 44 37 35 38 41 45 48 50 48 48 50 49 45 44 48 51 51 51 50 50 51 50 50 49 50 50 51 60 60 60 60 59 59 57 55 55 55 56 57 59 60 60 61 61 61 60 60 59
47 40 35 38 40 41 46 45 49 49 48 47 48 48 51 51 50 48 47 47 48 50 49 49 48 48 49 50 52 53 56 56 54 52 54 48 45 46 46 54 56 57 57 58 58 58 58 56 54
43 37 41 39 38 39 44 45 45 46 45 47 47 49 50 51 49 47 46 46 46 46 47 48 47 47 48 54 46 45 48 45 45 45 44 44 43 45 47 48 52 52 53 54 55 55 54 51 47
40 39 42 40 41 42 43 42 44 44 46 50 49 48 48 48 47 47 46 47 48 47 47 47 47 46 46 45 43 42 42 42 42 43 43 42 43 41 41 40 40 40 46 43 45 44 45 44 45
39 43 43 43 44 43 41 42 43 43 47 49 50 50 49 48 48 47 47 47 47 48 48 47 46 46 45 43 42 42 42 41 41 42 43 41 40 40 39 39 39 39 40 40 40 40 42 43 44
40 41 44 43 43 41 44 41 41 42 47 47 48 49 48 48 48 48 48 48 48 47 47 46 46 45 45 44 42 42 41 41 41 41 42 41 40 39 39 39 39 38 39 39 39 40 41 41 43
40 41 40 42 42 42 40 38 40 42 42 43 47 47 47 48 48 46 47 47 47 48 46 46 46 45 45 43 42 41 41 41 41 40 41 42 41 39 39 38 38 38 39 39 39 39 40 40 41
42 37 39 39 41 40 40 39 39 44 44 43 45 46 46 47 47 48 50 49 49 48 47 46 45 46 45 44 43 42 42 42 40 40 41 41 42 40 39 38 37 38 39 39 39 40 40 40 42
37 36 33 39 42 41 41 38 43 43 41 45 44 44 45 46 48 48 49 49 48 47 47 46 51 45 44 43 42 42 41 40 40 40 39 41 42 41 38 38 37 38 39 39 38 38 40 39 40
31 25 31 36 40 39 38 38 44 43 42 44 44 44 44 45 46 47 48 48 48 47 47 46 46 45 44 43 42 41 41 40 40 38 39 40 41 41 38 37 37 38 38 37 38 39 37 38 38
27 28 32 31 35 36 35 38 45 44 44 43 43 44 44 44 46 49 48 48 48 46 45 45 44 44 43 42 40 39 39 39 38 38 39 40 39 40 38 37 37 38 37 36 36 36 37 37 37
31 30 28 32 34 33 31 32 41 43 40 39 40 40 41 43 48 48 48 47 45 44 44 44 44 43 41 39 38 38 38 38 38 38 40 39 39 39 38 36 36 36 35 35 36 37 36 36 37
33 28 26 33 33 32 29 31 39 38 36 36 38 38 39 40 43 44 44 44 44 43 44 44 45 43 42 40 39 39 37 37 37 38 38 39 39 39 39 36 35 35 34 34 34 35 34 35 37
29 27 25 27 31 28 25 28 33 35 37 38 36 35 36 39 40 40 42 41 41 42 42 44 44 43 42 41 39 37 37 36 35 36 36 37 38 37 37 36 35 34 33 32 33 33 33 32 35
26 31 30 28 21 16 25 16 30 31 33 35 37 35 34 33 36 38 39 38 39 41 41 42 42 42 42 40 38 37 36 35 34 34 34 35 36 36 36 36 34 33 33 32 32 37 34 34 32
28 31 28 25 12 14 18 11 26 29 33 36 36 36 34 33 34 36 38 40 39 39 38 38 39 39 39 38 37 36 34 34 33 32 32 33 34 35 35 35 34 33 33 37 37 37 33 34 34
31 26 24 19 9 8 8 11 23 29 31 33 34 35 36 34 33 35 36 38 38 37 37 37 37 38 38 37 36 35 34 33 32 31 31 31 31 32 33 34 34 34 36 38 38 38 38 37 38
27 15 9 12 9 12 1 10 23 30 32 32 35 37 35 35 34 35 36 37 37 36 36 36 36 37 36 35 34 34 33 33 32 31 31 30 30 30 31 33 33 34 37 38 38 37 37 37 36
23 16 11 3 7 11 2 10 28 31 33 34 34 34 35 34 34 34 36 36 35 35 35 35 35 34 34 33 33 33 33 31 31 31 30 29 29 30 32 33 33 34 38 38 38 37 37 38 37
23 13 22 5 -6 2 9 18 30 31 27 30 32 34 34 34 34 34 35 35 35 35 34 34 34 33 33 33 32 31 31 31 30 30 30 29 30 32 33 33 33 34 35 37 37 36 36 37 37
22 25 14 9 4 0 8 0 19 25 26 26 29 27 28 30 32 32 33 34 35 34 33 32 32 32 32 32 31 31 30 30 30 30 29 30 30 31 32 32 32 33 34 36 36 36 37 36 37
16 12 13 13 13 6 0 13 18 18 16 19 23 24 20 22 26 28 31 31 32 32 31 32 31 31 31 31 30 30 30 30 30 29 29 30 31 31 31 33 33 34 35 35 35 35 36 35 36
23 17 20 13 7 6 9 13 20 17 13 9 21 23 23 19 25 27 30 31 30 31 31 31 31 30 31 30 30 30 30 30 29 29 29 30 30 31 31 32 32 32 32 33 34 33 34 34 34
MSLP
1015.50 1015.39 1015.24 1015.60 1017.48 1017.91 1017.70 1016.98 1016.23 1016.09 1016.21 1016.27 1016.18 1016.60 1017.13 1018.08 1018.83 1020.21 1019.77 1019.70 1019.54 1019.39 1019.36 1019.26 1019.27 1019.32 1019.60 1019.89 1019.77 1019.84 1019.97 1020.09 1020.05 1020.13 1020.15 1020.14 1020.27 1020.31 1020.27 1020.29 1020.22 1020.03 1019.90 1019.76 1019.66 1019.65 1019.72 1019.78 1019.70
1015.71 1015.29 1015.71 1017.04 1018.08 1018.43 1017.77 1016.77 1016.51 1016.33 1016.53 1016.62 1016.86 1017.24 1017.68 1018.62 1019.12 1019.81 1020.01 1019.96 1019.79 1019.70 1019.68 1019.54 1019.63 1019.79 1019.99 1020.13 1020.29 1020.22 1020.35 1020.36 1020.42 1020.43 1020.49 1020.46 1020.47 1020.55 1020.59 1020.56 1020.57 1020.56 1020.41 1020.30 1020.19 1020.12 1020.10 1020.10 1020.02
1015.60 1015.68 1016.86 1017.81 1018.41 1018.40 1017.74 1016.57 1016.44 1016.50 1016.78 1016.91 1017.61 1018.10 1018.48 1019.05 1019.62 1019.89 1020.04 1020.14 1020.09 1020.12 1019.98 1019.97 1020.03 1020.21 1020.40 1020.55 1020.60 1020.75 1020.78 1020.79 1020.86 1020.83 1020.92 1020.96 1020.87 1020.91 1020.95 1020.99 1020.95 1020.88 1020.80 1020.74 1020.67 1020.57 1020.46 1020.45 1020.36
1015.99 1016.57 1017.95 1018.12 1018.41 1017.85 1017.21 1016.52 1016.50 1016.73 1016.99 1017.16 1017.79 1018.77 1019.16 1019.49 1019.75 1019.90 1020.20 1020.40 1020.47 1020.62 1020.51 1020.23 1020.37 1020.54 1020.64 1020.89 1021.04 1021.24 1021.26 1021.31 1021.36 1021.41 1021.40 1021.45 1021.43 1021.41 1021.32 1021.29 1021.24 1021.22 1021.14 1021.07 1021.01 1020.99 1020.90 1020.76 1020.67
1016.53 1017.53 1018.49 1018.56 1018.02 1017.22 1016.84 1016.46 1016.52 1016.80 1017.14 1017.50 1017.96 1018.84 1019.64 1019.77 1020.03 1020.16 1020.46 1020.67 1020.84 1021.12 1021.05 1020.78 1020.71 1020.92 1021.07 1021.32 1021.45 1021.63 1021.76 1021.81 1021.85 1021.86 1021.91 1021.95 1022.03 1022.04 1021.93 1021.74 1021.62 1021.60 1021.55 1021.46 1021.37 1021.26 1021.13 1021.02 1020.94
1017.57 1018.15 1018.85 1018.73 1017.93 1017.11 1016.73 1016.54 1016.65 1016.89 1017.22 1017.92 1018.50 1019.27 1020.06 1020.10 1020.39 1020.82 1020.91 1021.05 1021.28 1021.33 1021.44 1021.55 1021.34 1021.47 1021.54 1021.75 1021.89 1022.05 1022.12 1022.39 1022.53 1022.53 1022.55 1022.58 1022.67 1022.62 1022.53 1022.29 1022.16 1022.13 1021.98 1021.87 1021.73 1021.65 1021.58 1021.46 1021.29
1017.57 1018.57 1018.74 1018.38 1017.81 1017.28 1016.89 1016.69 1016.69 1016.98 1017.40 1017.95 1018.41 1019.47 1020.44 1020.61 1020.71 1021.04 1021.30 1021.43 1021.50 1021.70 1021.82 1022.05 1022.16 1022.12 1021.99 1022.13 1022.43 1022.58 1022.63 1022.78 1023.06 1023.15 1023.16 1023.14 1023.15 1023.17 1023.12 1023.01 1022.78 1022.57 1022.45 1022.29 1022.14 1022.05 1021.93 1021.77 1021.67
1017.75 1018.45 1018.76 1018.32 1017.92 1017.39 1017.10 1017.02 1017.05 1017.18 1017.68 1018.09 1018.46 1019.22 1019.94 1020.17 1020.73 1021.33 1021.69 1021.76 1021.83 1022.09 1022.17 1022.52 1022.65 1022.71 1022.69 1022.76 1023.05 1023.24 1023.19 1023.35 1023.53 1023.72 1023.78 1023.85 1023.81 1023.79 1023.64 1023.55 1023.32 1023.14 1023.01 1022.78 1022.59 1022.45 1022.30 1022.19 1022.09
1017.65 1018.60 1019.05 1018.28 1018.10 1017.55 1017.43 1017.35 1017.36 1017.41 1017.68 1018.09 1018.53 1018.98 1019.32 1019.62 1020.85 1021.59 1022.15 1022.33 1022.19 1022.31 1022.44 1022.80 1022.97 1023.15 1023.06 1023.11 1023.57 1023.79 1023.75 1023.80 1024.05 1024.20 1024.17 1024.27 1024.35 1024.31 1024.26 1023.93 1023.77 1023.60 1023.50 1023.21 1023.01 1022.79 1022.66 1022.55 1022.46
1018.06 1018.87 1018.52 1018.27 1018.13 1018.09 1017.99 1017.94 1017.91 1017.96 1018.03 1018.21 1018.68 1019.16 1019.60 1020.06 1020.87 1021.52 1021.97 1022.10 1022.22 1022.40 1022.60 1022.90 1023.17 1023.38 1023.36 1023.32 1023.83 1024.00 1024.04 1024.07 1024.23 1024.52 1024.51 1024.50 1024.60 1024.56 1024.55 1024.38 1024.18 1024.05 1023.93 1023.72 1023.49 1023.23 1023.02 1022.90 1022.72
1018.31 1018.47 1018.41 1018.56 1018.57 1018.58 1018.56 1018.50 1018.45 1018.30 1018.25 1018.08 1018.43 1019.18 1019.90 1020.42 1020.99 1021.36 1021.63 1021.66 1021.89 1022.25 1022.63 1022.94 1023.25 1023.41 1023.55 1023.80 1024.10 1024.22 1024.25 1024.32 1024.43 1024.69 1024.74 1024.73 1024.72 1024.75 1024.76 1024.72 1024.61 1024.49 1024.29 1024.14 1023.86 1023.60 1023.34 1023.21 1022.99
1018.42 1018.60 1018.66 1018.83 1018.91 1018.91 1018.95 1019.09 1018.91 1018.67 1018.04 1018.12 1018.30 1018.84 1019.66 1020.23 1020.55 1020.87 1021.23 1021.51 1021.84 1022.26 1022.54 1023.00 1023.26 1023.39 1023.73 1024.06 1024.29 1024.38 1024.34 1024.43 1024.64 1024.77 1024.77 1024.85 1024.93 1024.95 1025.00 1024.94 1024.81 1024.66 1024.51 1024.38 1024.17 1023.87 1023.51 1023.24 1022.99
1018.56 1018.92 1019.08 1019.16 1019.20 1019.27 1019.31 1019.23 1019.19 1018.44 1018.19 1018.32 1018.58 1019.04 1019.56 1020.00 1020.36 1020.72 1021.07 1021.48 1021.73 1022.21 1022.58 1022.85 1023.28 1023.49 1023.68 1024.06 1024.40 1024.38 1024.51 1024.59 1024.80 1024.95 1024.93 1025.00 1025.15 1025.23 1025.19 1025.17 1025.02 1024.88 1024.68 1024.53 1024.30 1024.00 1023.65 1023.40 1023.04
1019.03 1019.19 1019.39 1019.43 1019.48 1019.49 1019.60 1019.45 1019.23 1018.20 1018.09 1018.41 1018.80 1019.16 1019.47 1019.77 1019.97 1020.58 1021.01 1021.23 1021.62 1021.92 1022.36 1022.75 1023.10 1023.43 1023.67 1024.06 1024.24 1024.46 1024.53 1024.65 1024.90 1025.10 1025.11 1025.11 1025.19 1025.24 1025.23 1025.23 1025.13 1024.99 1024.83 1024.61 1024.40 1024.13 1023.77 1023.41 1023.02
1019.33 1019.60 1019.60 1019.69 1019.78 1019.80 1019.87 1019.56 1019.02 1018.16 1018.23 1018.55 1018.97 1019.29 1019.58 1019.66 1020.08 1020.04 1020.09 1020.69 1021.11 1021.49 1021.95 1022.49 1022.79 1023.28 1023.66 1023.92 1024.11 1024.39 1024.38 1024.57 1024.83 1025.08 1025.03 1025.05 1025.05 1025.14 1025.22 1025.24 1025.14 1024.96 1024.71 1024.42 1024.08 1023.76 1023.45 1023.16 1022.78
1020.11 1020.10 1020.23 1020.12 1020.09 1020.01 1020.02 1019.18 1018.13 1018.09 1018.25 1018.56 1018.96 1019.29 1019.43 1019.45 1019.49 1019.76 1020.05 1020.45 1020.87 1021.26 1021.68 1022.13 1022.35 1023.13 1023.53 1023.83 1024.01 1024.30 1024.43 1024.58 1024.81 1025.04 1025.02 1024.98 1024.96 1024.96 1025.05 1025.10 1024.98 1024.73 1024.55 1024.33 1024.18 1023.90 1023.54 1023.22 1022.84
1021.50 1021.26 1021.00 1020.73 1020.78 1020.77 1020.47 1019.49 1018.32 1018.31 1018.53 1018.79 1018.94 1019.14 1019.29 1019.26 1019.35 1019.45 1019.62 1019.97 1020.49 1020.80 1021.30 1021.87 1022.35 1022.95 1023.45 1023.75 1024.10 1024.43 1024.50 1024.61 1024.84 1025.02 1025.09 1025.04 1025.02 1024.96 1025.05 1025.07 1024.96 1024.72 1024.61 1024.42 1024.21 1023.84 1023.75 1023.23 1022.67
1022.26 1022.15 1021.70 1021.69 1021.92 1021.50 1021.16 1019.96 1018.66 1018.66 1018.75 1018.69 1018.85 1018.93 1019.03 1018.97 1018.65 1018.64 1019.04 1019.50 1020.02 1020.58 1021.11 1021.70 1022.32 1022.92 1023.39 1023.80 1024.24 1024.43 1024.51 1024.60 1024.78 1024.93 1025.01 1024.99 1025.03 1024.97 1024.98 1024.98 1024.91 1024.77 1024.68 1024.49 1024.26 1024.03 1023.71 1023.42 1022.79
1022.46 1022.66 1022.81 1022.54 1022.95 1022.75 1022.08 1021.15 1019.16 1018.74 1018.83 1018.77 1018.93 1019.00 1018.89 1018.69 1018.22 1018.40 1018.70 1019.24 1019.95 1020.63 1021.20 1021.66 1022.18 1022.80 1023.34 1023.91 1024.35 1024.52 1024.60 1024.63 1024.80 1024.90 1024.89 1024.95 1024.96 1024.91 1024.93 1024.93 1024.89 1024.81 1024.75 1024.59 1024.31 1024.01 1023.64 1023.15 1022.76
1023.24 1023.63 1023.91 1023.70 1023.91 1024.03 1023.36 1021.79 1019.25 1018.89 1018.68 1018.70 1018.92 1018.99 1018.81 1018.48 1018.26 1018.35 1018.71 1019.14 1019.71 1020.25 1020.99 1021.58 1022.06 1022.60 1023.04 1023.46 1023.82 1024.17 1024.45 1024.67 1024.75 1024.81 1024.85 1024.89 1024.91 1024.89 1024.82 1024.88 1024.85 1024.79 1024.75 1024.53 1024.30 1024.10 1023.79 1023.34 1022.97
1024.48 1024.96 1025.31 1025.84 1025.46 1025.56 1024.97 1022.61 1020.35 1019.09 1018.64 1018.43 1018.64 1018.80 1018.80 1018.57 1018.62 1018.80 1019.09 1019.37 1019.86 1020.38 1020.92 1021.49 1021.93 1022.41 1022.89 1023.27 1023.72 1024.15 1024.42 1024.67 1024.79 1024.78 1024.90 1024.93 1024.94 1024.92 1024.91 1024.91 1024.89 1024.85 1024.74 1024.57 1024.38 1024.18 1024.00 1023.63 1023.14
1025.77 1026.04 1026.52 1027.14 1027.71 1028.24 1027.34 1025.54 1021.88 1020.13 1019.18 1018.53 1018.42 1018.71 1018.78 1018.79 1018.92 1019.20 1019.51 1019.83 1020.20 1020.57 1021.04 1021.50 1021.98 1022.40 1022.72 1023.01 1023.50 1023.86 1024.29 1024.67 1024.72 1024.84 1024.95 1024.95 1024.83 1024.77 1024.69 1024.62 1024.59 1024.56 1024.45 1024.35 1024.17 1023.77 1023.77 1023.60 1023.18
1026.68 1026.99 1027.79 1028.82 1029.86 1030.20 1029.48 1028.27 1022.60 1020.82 1019.53 1018.79 1018.64 1018.98 1019.18 1019.38 1019.56 1019.76 1020.01 1020.26 1020.58 1020.94 1021.37 1021.65 1021.98 1022.26 1022.51 1022.81 1023.15 1023.60 1024.06 1024.23 1024.37 1024.65 1024.76 1024.75 1024.60 1024.53 1024.45 1024.36 1024.33 1024.33 1024.26 1023.87 1023.71 1023.58 1023.46 1023.32 1023.02
1027.34 1028.10 1029.19 1030.31 1031.35 1031.89 1031.17 1029.60 1024.42 1021.45 1019.99 1019.42 1019.18 1019.36 1019.60 1019.83 1020.01 1020.16 1020.32 1020.52 1020.77 1021.00 1021.34 1021.61 1021.84 1022.02 1022.26 1022.59 1022.91 1023.25 1023.67 1024.00 1024.36 1024.48 1024.59 1024.50 1024.42 1024.36 1024.24 1024.09 1024.01 1023.91 1023.70 1023.34 1023.26 1023.06 1022.96 1022.76 1022.50
1028.13 1029.63 1031.14 1032.05 1032.80 1032.92 1031.79 1030.22 1024.39 1021.45 1020.53 1020.27 1020.18 1020.07 1020.06 1020.20 1020.33 1020.53 1020.75 1020.85 1020.99 1021.07 1021.32 1021.66 1021.90 1022.00 1022.16 1022.43 1022.72 1023.02 1023.34 1023.67 1023.95 1024.14 1024.30 1024.40 1024.35 1024.20 1024.02 1023.82 1023.65 1023.51 1023.25 1022.94 1022.80 1022.67 1022.48 1022.30 1022.10
1029.78 1030.76 1032.40 1034.11 1035.17 1034.00 1032.34 1029.49 1023.81 1021.63 1020.86 1020.69 1020.78 1020.92 1020.78 1020.89 1021.09 1021.25 1021.13 1021.03 1021.15 1021.40 1021.54 1021.70 1021.88 1022.06 1022.18 1022.31 1022.46 1022.72 1023.04 1023.35 1023.62 1023.83 1024.05 1024.12 1024.11 1023.96 1023.68 1023.49 1023.30 1023.12 1022.78 1022.56 1022.36 1022.18 1021.92 1021.69 1021.48
1030.69 1031.47 1032.38 1034.17 1036.35 1035.60 1031.96 1028.65 1024.37 1022.21 1021.68 1021.74 1021.71 1021.55 1021.54 1021.65 1021.56 1021.54 1021.45 1021.44 1021.44 1021.37 1021.48 1021.70 1021.83 1021.91 1022.11 1022.22 1022.37 1022.66 1022.90 1023.13 1023.37 1023.61 1023.79 1023.86 1023.91 1023.61 1023.37 1023.18 1023.05 1022.75 1022.42 1022.16 1021.90 1021.65 1021.34 1021.10 1020.87
1030.90 1032.02 1032.84 1034.13 1035.58 1035.42 1032.77 1030.36 1026.62 1024.61 1024.03 1023.46 1023.16 1023.36 1023.11 1022.96 1022.92 1022.84 1022.43 1021.94 1021.52 1021.35 1021.34 1021.52 1021.48 1021.53 1021.68 1021.99 1021.99 1022.27 1022.55 1022.84 1023.13 1023.40 1023.59 1023.67 1023.55 1023.38 1023.14 1022.91 1022.67 1022.37 1022.08 1021.72 1021.44 1021.12 1020.84 1020.58 1020.24
1031.58 1032.24 1033.19 1033.96 1034.47 1034.69 1033.69 1029.45 1025.93 1025.61 1025.62 1025.19 1024.58 1024.52 1024.11 1023.90 1023.36 1023.02 1022.36 1021.92 1021.90 1021.68 1021.55 1021.22 1021.29 1021.24 1021.41 1021.90 1021.69 1021.88 1022.32 1022.70 1022.99 1023.20 1023.26 1023.19 1023.06 1022.94 1022.81 1022.59 1022.36 1022.04 1021.70 1021.38 1021.08 1020.72 1020.44 1020.10 1019.73
1030.88 1031.53 1032.15 1033.71 1034.28 1034.02 1032.87 1028.31 1025.16 1025.42 1025.44 1025.42 1024.76 1024.29 1023.90 1023.46 1022.99 1022.69 1021.84 1021.41 1021.09 1020.95 1021.07 1020.84 1020.73 1020.72 1020.85 1021.26 1021.39 1021.35 1021.62 1022.15 1022.59 1022.77 1022.74 1022.67 1022.68 1022.55 1022.41 1022.27 1022.01 1021.72 1021.47 1021.13 1020.76 1020.38 1020.07 1019.66 1019.24
Wind_Speed
7 6 2 5 4 5 3 6 2 1 2 3 2 2 5 3 3 5 3 2 5 7 6 7 15 17 16 14 15 16 16 16 16 16 16 17 16 16 16 16 14 14 14 15 14 14 14 15 14
4 3 5 3 5 1 6 4 5 3 4 5 4 2 3 3 3 4 5 1 6 6 6 7 15 16 15 15 15 16 16 16 16 16 16 17 17 16 16 16 16 16 15 15 15 15 16 15 15
2 3 5 4 4 6 5 4 4 1 6 2 3 4 1 3 3 7 3 6 7 7 6 8 14 16 15 15 16 16 16 17 17 17 17 17 17 17 17 16 16 15 15 14 14 14 15 14 14
2 5 5 5 4 6 5 3 2 5 1 2 2 4 2 4 6 6 6 7 8 6 5 11 15 15 16 15 16 15 16 17 17 17 17 17 17 17 16 16 16 16 15 15 15 14 14 13 14
5 4 3 1 4 4 4 2 6 4 3 2 0 2 2 3 5 9 9 7 8 6 6 7 15 15 15 15 15 15 16 17 17 17 18 17 17 17 17 17 17 16 16 16 16 15 15 16 16
4 3 4 3 4 3 2 2 2 2 2 3 4 4 2 1 7 5 6 7 6 7 7 7 11 13 14 15 15 15 16 16 16 17 17 17 17 17 17 17 17 16 16 16 16 16 16 16 16
6 4 4 4 3 2 1 1 2 3 3 2 7 5 0 1 4 6 7 6 6 6 7 6 7 9 13 14 15 14 16 16 16 16 17 17 17 17 17 17 17 17 17 16 16 16 16 17 17
5 5 3 3 3 3 2 2 1 1 2 4 1 3 4 6 8 6 5 6 6 5 6 6 6 6 6 6 13 13 14 15 15 15 14 15 15 16 16 16 17 17 17 17 17 16 17 17 16
3 5 2 3 5 1 4 1 2 1 4 1 1 3 3 11 10 7 4 3 4 3 5 4 5 5 6 6 7 9 12 13 12 11 12 10 5 6 9 13 16 16 17 17 17 17 16 16 15
5 4 7 0 1 0 3 1 2 0 1 2 1 3 5 12 11 11 8 7 5 5 4 4 4 4 4 4 5 5 5 5 5 5 6 4 5 5 7 9 14 15 16 15 16 16 15 12 5
2 5 3 1 1 0 2 1 4 2 5 6 6 5 8 8 9 11 8 7 8 5 3 5 5 4 5 4 3 2 3 3 4 6 5 5 4 4 4 3 4 4 10 4 7 7 5 6 5
1 1 1 1 2 1 1 4 4 4 3 1 4 6 10 13 13 13 11 8 8 7 7 6 5 5 4 3 3 3 3 3 3 4 5 4 3 4 4 3 4 4 3 5 4 3 5 6 6
2 1 2 1 2 1 4 4 4 8 8 3 3 7 12 10 9 6 6 5 6 7 7 7 6 5 5 4 3 3 3 3 3 3 4 4 4 4 3 4 4 4 4 3 4 4 5 5 6
1 2 1 3 3 3 3 3 4 3 2 4 6 8 9 10 12 5 7 8 8 7 7 7 7 6 5 4 4 3 3 3 3 2 2 3 2 2 3 3 3 3 3 3 3 4 4 4 4
3 1 0 2 2 2 2 4 8 6 3 3 7 7 7 9 7 13 12 11 10 6 6 8 7 6 6 4 3 3 2 3 3 2 3 3 3 3 3 3 3 3 3 5 4 4 4 4 5
4 4 3 2 6 2 2 8 2 1 2 7 6 7 8 10 12 9 7 8 8 6 9 7 6 7 6 4 3 2 2 2 2 2 2 4 4 4 4 3 4 4 4 4 4 4 7 6 6
8 1 1 2 5 4 3 7 3 2 2 7 7 7 7 8 8 9 9 9 8 8 8 8 7 7 6 4 3 2 2 1 0 1 1 3 4 4 3 3 4 4 4 4 5 6 4 8 8
2 3 2 3 6 5 4 14 14 7 8 10 9 8 8 9 12 9 9 8 8 7 6 6 6 7 6 4 2 1 0 0 0 1 1 3 3 4 3 3 4 4 4 4 3 5 4 4 7
2 1 2 2 4 5 3 10 19 7 7 9 8 8 9 10 8 5 7 7 7 6 7 7 8 7 4 2 2 1 2 1 1 1 2 3 3 4 4 3 4 4 4 4 5 6 8 5 4
4 2 4 4 4 3 6 18 18 7 5 5 5 7 8 6 6 6 7 7 8 7 7 7 7 7 5 3 2 2 1 1 1 1 2 2 3 3 4 4 4 5 4 5 4 5 5 3 2
4 3 3 3 8 3 8 9 7 4 4 3 2 4 5 6 6 4 6 6 7 8 8 7 7 7 5 5 2 2 2 2 2 1 1 1 3 4 3 4 3 4 3 3 4 4 4 5 2
2 2 2 3 5 3 6 7 9 5 9 5 6 4 5 1 2 3 5 5 6 6 6 5 5 5 5 6 4 5 4 4 3 2 2 3 3 4 4 4 4 4 3 4 4 5 3 4 6
1 3 2 3 4 4 7 5 12 4 6 6 6 5 4 2 1 4 5 5 4 5 6 5 5 5 4 5 6 5 4 3 1 1 3 3 3 4 5 5 5 4 4 5 6 7 5 5 6
2 3 5 4 4 4 4 4 9 4 3 5 4 5 5 4 3 3 2 3 3 3 4 4 4 4 4 5 7 7 7 5 3 2 3 3 3 3 5 5 5 5 5 6 6 7 7 7 7
6 7 5 8 7 5 1 2 13 7 6 4 8 9 7 5 5 5 7 6 7 7 6 4 4 5 5 5 6 7 6 5 5 4 3 4 3 2 4 5 5 4 6 7 6 7 8 8 8
4 6 7 5 2 7 2 6 9 4 6 6 5 7 6 6 5 6 7 7 7 6 6 5 5 6 5 6 7 6 6 4 4 3 3 3 3 4 5 5 5 6 8 7 7 6 7 8 8
2 4 2 8 2 5 3 9 13 4 6 8 6 7 8 7 7 8 7 8 8 8 8 7 7 7 7 7 5 6 5 5 5 5 3 3 4 5 6 5 6 6 6 8 8 7 8 8 9
5 2 5 5 2 5 7 6 7 8 9 10 10 10 9 8 9 9 9 9 7 7 7 7 8 8 7 7 6 5 6 6 5 3 4 5 5 5 5 6 5 6 6 8 8 7 8 8 8
3 3 5 4 4 6 3 9 9 8 3 6 9 8 7 8 8 8 9 8 8 7 7 7 7 7 6 7 6 7 6 6 5 4 5 5 4 5 5 6 6 7 7 7 7 8 9 10 9
3 6 4 6 7 3 3 12 2 7 5 4 9 8 6 6 8 8 11 10 9 8 8 8 7 7 7 7 7 7 7 6 5 5 5 4 5 5 5 5 6 6 6 6 8 9 9 10 11
Wind_Direction
348 331 50 41 52 64 258 249 283 246 169 306 32 157 162 64 175 197 275 122 95 82 68 85 92 91 85 85 80 79 73 68 67 65 67 66 61 57 54 51 46 36 33 29 26 31 29 24 17
344 347 44 77 103 135 264 246 237 230 145 137 61 1 62 111 99 113 108 87 95 89 73 77 86 86 87 83 80 77 74 69 66 65 62 61 58 55 50 50 49 42 35 28 22 25 25 20 14
350 32 88 112 130 197 223 227 219 52 142 43 85 41 90 151 51 148 145 123 86 73 73 84 89 92 90 86 80 78 72 68 66 64 60 55 54 52 48 43 40 38 36 34 29 21 16 11 5
82 20 36 97 216 250 215 301 194 117 42 50 125 73 30 287 157 152 126 111 92 75 78 97 98 93 87 85 79 76 73 68 65 62 59 53 50 47 45 42 39 36 34 32 30 25 21 15 9
39 55 78 152 244 257 256 258 156 148 128 88 105 186 45 18 85 121 121 112 111 91 68 77 95 91 90 86 81 76 70 63 62 60 55 53 50 45 42 40 38 34 30 28 25 21 19 16 12
52 95 79 222 248 255 262 176 153 126 103 147 91 128 159 335 131 143 116 112 103 103 81 62 73 86 87 84 79 76 73 64 63 61 58 55 49 44 40 38 35 32 30 25 23 18 14 10 9
115 95 201 193 236 272 172 357 151 159 135 222 149 130 25 190 132 129 121 112 103 96 88 75 64 66 79 80 75 75 73 66 62 59 58 54 52 46 44 37 35 32 27 24 20 16 12 9 8
108 97 147 241 205 243 6 38 29 139 142 130 147 203 235 192 146 116 104 113 111 103 103 98 86 78 77 63 78 74 74 68 65 61 60 54 51 48 41 39 32 30 26 23 21 15 12 8 6
120 66 202 231 162 234 1 118 15 306 125 99 116 159 300 125 123 112 110 87 102 109 113 112 107 98 100 92 74 70 72 68 64 56 56 48 39 41 36 36 33 28 24 20 18 13 11 7 2
91 122 220 352 126 208 315 329 322 77 158 242 199 64 94 134 153 160 172 169 172 164 162 136 122 123 99 94 85 75 72 65 60 49 51 54 51 38 47 34 31 25 22 17 14 10 7 3 351
149 182 170 146 35 354 292 263 324 206 239 217 207 159 156 158 172 177 187 180 181 166 143 162 149 135 114 100 93 73 76 68 57 49 45 45 47 37 33 29 19 12 12 9 5 1 359 350 344
108 40 19 123 6 353 282 302 291 217 222 54 233 165 169 175 187 188 188 180 162 172 178 172 162 144 129 118 109 108 87 71 57 42 38 41 34 28 21 20 9 13 360 359 353 345 334 336 328
90 136 46 37 27 20 333 292 275 263 259 255 88 153 184 190 196 193 179 172 174 186 181 183 169 165 151 137 135 118 98 85 77 48 37 42 33 25 13 7 3 358 352 352 343 339 333 326 321
103 78 50 13 358 8 353 301 18 282 6 215 168 197 197 196 193 153 176 190 187 190 189 177 183 179 162 163 158 137 115 102 75 57 39 39 46 24 19 358 351 345 340 322 319 318 314 310 306
115 58 30 34 0 340 11 263 234 255 312 213 223 220 218 221 182 202 198 196 189 192 176 190 181 180 178 165 148 141 123 93 66 28 19 19 26 15 3 348 338 324 324 329 333 325 321 320 318
42 45 33 14 360 1 1 276 258 11 199 256 248 240 226 228 214 211 194 199 190 170 183 181 179 171 173 160 147 141 101 79 61 22 8 6 359 4 355 348 335 329 337 339 339 327 333 328 323
16 190 339 326 36 324 42 279 277 64 17 288 274 263 243 248 237 219 204 196 187 190 178 185 177 171 164 150 142 143 116 108 113 33 9 342 347 350 355 339 328 340 337 337 330 332 327 325 320
286 13 312 276 343 354 291 269 278 266 272 261 267 266 251 242 237 225 206 197 184 185 175 156 150 155 155 126 119 109 20 284 209 209 309 347 344 347 358 345 337 341 329 320 321 312 310 293 302
122 71 310 293 12 338 295 288 286 294 254 268 271 269 263 250 248 219 206 181 148 153 156 161 153 170 143 133 164 214 229 190 261 289 324 339 336 342 347 331 333 334 332 317 316 316 317 316 306
59 76 316 297 19 359 358 295 283 291 250 224 275 291 279 261 218 184 166 157 169 157 155 159 174 171 181 149 161 144 143 155 215 262 305 323 337 345 328 337 326 332 326 321 315 318 315 285 335
50 98 10 260 328 69 323 300 322 313 315 269 263 302 304 257 214 177 162 157 144 159 168 174 178 181 188 178 120 93 58 34 348 300 301 311 328 311 302 297 291 302 302 303 302 299 292 294 293
33 354 34 13 42 279 15 278 299 318 306 286 285 325 331 331 157 150 153 156 169 173 157 161 177 194 204 179 175 185 189 201 209 192 230 287 289 300 301 300 292 296 294 298 293 300 283 295 294
155 30 58 81 89 52 349 71 272 335 321 313 302 288 317 354 126 174 177 174 178 149 170 185 193 212 218 198 199 193 206 211 197 235 277 287 297 301 302 295 286 276 268 258 281 280 270 267 264
69 71 41 60 93 33 254 108 283 258 238 320 336 289 278 272 253 207 189 165 199 188 184 188 199 236 225 203 201 199 207 216 235 252 270 287 297 301 293 283 265 255 258 284 281 270 266 269 270
53 47 343 358 9 223 259 23 246 289 284 274 289 308 266 245 218 212 204 204 212 202 199 201 209 243 219 203 202 203 208 203 231 252 265 288 289 269 280 280 270 259 264 272 271 268 267 269 265
43 128 146 214 277 277 8 244 256 242 297 281 283 301 281 258 264 251 235 227 228 223 220 227 237 255 242 221 217 201 200 198 212 227 237 259 268 275 277 276 271 269 274 276 274 269 267 266 262
272 42 172 99 68 35 269 293 295 330 320 15 318 318 289 268 255 249 256 250 243 235 239 239 240 238 235 223 208 205 204 200 212 224 239 260 268 276 265 269 277 276 278 276 273 267 265 264 265
121 149 36 6 16 305 293 277 242 320 321 341 359 338 324 325 323 314 299 284 272 261 259 251 232 228 224 219 200 201 202 204 207 213 240 248 260 260 269 265 268 272 273 276 274 275 275 275 275
26 10 43 120 132 181 275 266 215 224 233 305 317 328 318 317 305 285 273 266 280 286 268 256 246 231 223 227 200 190 195 198 202 216 232 236 254 264 270 274 278 283 288 284 286 284 284 280 283
165 191 151 126 269 228 178 269 292 219 231 213 293 285 274 250 274 274 278 281 268 250 277 269 250 232 218 216 206 195 183 186 202 220 228 239 253 266 271 276 280 287 286 294 295 290 285 282 281